SDG096 LIEE-LICC

Flight info

Callsign SDG096
Flight time 0h 59m
Altitude 21000
Route CAR Q152 VAKOR N982 LIBRO
Aircraft A321/M-SDE3FGHIRWY/C

Departure

Time 2026-05-06 18:04
Airport Cagliari Elmas Airport (LIEE)

Arrival

Time 2026-05-06 19:03
Airport Catania-Fontanarossa Airport (LICC)
Time Latitude Longitude Altitude Speed Heading
2026-05-06 17:46 39.25063 9.05914 22 ft 0 kts 228°
2026-05-06 17:56 39.25045 9.05883 22 ft 9 kts 242°
2026-05-06 17:57 39.25064 9.05808 22 ft 10 kts 324°
2026-05-06 17:57 39.25124 9.05747 22 ft 11 kts 318°
2026-05-06 17:57 39.25186 9.05674 22 ft 12 kts 317°
2026-05-06 17:57 39.25255 9.05593 22 ft 13 kts 317°
2026-05-06 17:58 39.25328 9.05506 22 ft 14 kts 317°
2026-05-06 17:58 39.25404 9.05414 22 ft 15 kts 317°
2026-05-06 17:58 39.25493 9.05307 22 ft 18 kts 316°
2026-05-06 17:58 39.25584 9.05195 22 ft 18 kts 318°
2026-05-06 17:59 39.25677 9.05086 22 ft 18 kts 319°
2026-05-06 17:59 39.25775 9.04975 22 ft 18 kts 318°
2026-05-06 17:59 39.25873 9.04862 22 ft 18 kts 318°
2026-05-06 17:59 39.25970 9.04749 22 ft 19 kts 317°
2026-05-06 18:00 39.26068 9.04632 22 ft 19 kts 317°
2026-05-06 18:00 39.26116 9.04567 22 ft 0 kts 315°
2026-05-06 18:00 39.26120 9.04560 22 ft 4 kts 304°
2026-05-06 18:00 39.26131 9.04509 22 ft 3 kts 278°
2026-05-06 18:01 39.26131 9.04465 22 ft 5 kts 263°
2026-05-06 18:01 39.26127 9.04424 22 ft 0 kts 261°
2026-05-06 18:02 39.26127 9.04423 22 ft 0 kts 260°
2026-05-06 18:02 39.26125 9.04421 22 ft 0 kts 233°
2026-05-06 18:03 39.26108 9.04400 22 ft 9 kts 216°
2026-05-06 18:03 39.26040 9.04401 22 ft 10 kts 139°
2026-05-06 18:03 39.25973 9.04481 22 ft 28 kts 135°
2026-05-06 18:03 39.25592 9.04935 22 ft 119 kts 141°
2026-05-06 18:04 39.24770 9.05894 45 ft 192 kts 142°
2026-05-06 18:04 39.23576 9.06843 760 ft 213 kts 146°
2026-05-06 18:04 39.22510 9.08108 2016 ft 218 kts 134°
2026-05-06 18:04 39.21479 9.09482 2969 ft 216 kts 135°
2026-05-06 18:05 39.20370 9.10868 3485 ft 229 kts 136°
2026-05-06 18:05 39.19190 9.12271 4149 ft 234 kts 137°
2026-05-06 18:05 39.17988 9.13676 4886 ft 236 kts 138°
2026-05-06 18:05 39.16771 9.15085 5642 ft 236 kts 138°
2026-05-06 18:06 39.15540 9.16484 6393 ft 236 kts 140°
2026-05-06 18:06 39.14297 9.17845 7089 ft 238 kts 140°
2026-05-06 18:06 39.13259 9.19503 7729 ft 244 kts 115°
2026-05-06 18:06 39.12924 9.21669 8332 ft 252 kts 96°
2026-05-06 18:07 39.12837 9.23923 8918 ft 257 kts 95°
2026-05-06 18:07 39.12736 9.26228 9521 ft 260 kts 96°
2026-05-06 18:07 39.12613 9.28540 10126 ft 263 kts 97°
2026-05-06 18:07 39.12473 9.30902 10718 ft 266 kts 98°
2026-05-06 18:08 39.12322 9.33291 11281 ft 269 kts 98°
2026-05-06 18:08 39.12166 9.35679 11819 ft 273 kts 99°
2026-05-06 18:08 39.12002 9.38134 12361 ft 276 kts 99°
2026-05-06 18:08 39.11837 9.40585 12879 ft 279 kts 99°
2026-05-06 18:09 39.11665 9.43105 13394 ft 283 kts 99°
2026-05-06 18:09 39.11493 9.45632 13898 ft 286 kts 99°
2026-05-06 18:09 39.11321 9.48183 14388 ft 289 kts 99°
2026-05-06 18:09 39.11147 9.50741 14866 ft 292 kts 99°
2026-05-06 18:10 39.10963 9.53389 15193 ft 302 kts 99°
2026-05-06 18:10 39.10767 9.56158 15438 ft 315 kts 99°
2026-05-06 18:10 39.10566 9.58999 15680 ft 328 kts 98°
2026-05-06 18:10 39.10355 9.61975 15922 ft 340 kts 98°
2026-05-06 18:11 39.10136 9.65062 16160 ft 353 kts 99°
2026-05-06 18:11 39.09985 9.67194 16317 ft 362 kts 99°
2026-05-06 18:11 39.09675 9.71569 16622 ft 378 kts 98°
2026-05-06 18:11 39.09429 9.75016 16853 ft 391 kts 98°
2026-05-06 18:12 39.09177 9.78535 17067 ft 403 kts 98°
2026-05-06 18:12 39.08915 9.82171 17288 ft 415 kts 98°
2026-05-06 18:12 39.08643 9.85929 17499 ft 427 kts 98°
2026-05-06 18:12 39.08362 9.89798 17757 ft 438 kts 98°
2026-05-06 18:13 39.08080 9.93680 18206 ft 442 kts 98°
2026-05-06 18:13 39.07786 9.97664 18707 ft 445 kts 98°
2026-05-06 18:13 39.07498 10.01600 19192 ft 448 kts 98°
2026-05-06 18:13 39.07204 10.05594 19681 ft 451 kts 98°
2026-05-06 18:14 39.06903 10.09647 20167 ft 453 kts 98°
2026-05-06 18:14 39.06603 10.13644 20608 ft 456 kts 98°
2026-05-06 18:14 39.06292 10.17760 20940 ft 459 kts 98°
2026-05-06 18:14 39.05982 10.21840 20967 ft 458 kts 98°
2026-05-06 18:15 39.05676 10.25861 20976 ft 457 kts 98°
2026-05-06 18:15 39.05362 10.29965 20978 ft 458 kts 98°
2026-05-06 18:15 39.05051 10.34007 20979 ft 458 kts 98°
2026-05-06 18:15 39.04733 10.38116 20979 ft 458 kts 98°
2026-05-06 18:16 39.04419 10.42163 20979 ft 458 kts 98°
2026-05-06 18:16 39.04099 10.46261 20979 ft 458 kts 98°
2026-05-06 18:16 39.03784 10.50279 20979 ft 458 kts 98°
2026-05-06 18:16 39.03461 10.54383 20979 ft 458 kts 98°
2026-05-06 18:17 39.03141 10.58427 20979 ft 458 kts 99°
2026-05-06 18:17 39.02815 10.62530 20979 ft 458 kts 99°
2026-05-06 18:17 39.02489 10.66620 20978 ft 457 kts 99°
2026-05-06 18:17 39.02161 10.70709 20979 ft 457 kts 99°
2026-05-06 18:18 39.01834 10.74771 20979 ft 457 kts 99°
2026-05-06 18:18 39.01506 10.78821 20978 ft 458 kts 99°
2026-05-06 18:18 39.01177 10.82869 20978 ft 458 kts 99°
2026-05-06 18:18 39.00844 10.86938 20977 ft 458 kts 99°
2026-05-06 18:19 39.00510 10.91016 20977 ft 458 kts 99°
2026-05-06 18:19 39.00174 10.95083 20976 ft 457 kts 99°
2026-05-06 18:19 38.99839 10.99126 20976 ft 458 kts 99°
2026-05-06 18:19 38.99500 11.03203 20975 ft 458 kts 99°
2026-05-06 18:20 38.99162 11.07275 20974 ft 458 kts 99°
2026-05-06 18:20 38.98828 11.11329 20974 ft 458 kts 99°
2026-05-06 18:20 38.98491 11.15424 20973 ft 458 kts 99°
2026-05-06 18:20 38.98155 11.19475 20972 ft 459 kts 99°
2026-05-06 18:21 38.97815 11.23546 20972 ft 459 kts 99°
2026-05-06 18:21 38.97470 11.27628 20972 ft 459 kts 99°
2026-05-06 18:21 38.97127 11.31671 20971 ft 458 kts 99°
2026-05-06 18:21 38.96779 11.35754 20971 ft 458 kts 99°
2026-05-06 18:22 38.96434 11.39792 20970 ft 458 kts 99°
2026-05-06 18:22 38.96080 11.43894 20969 ft 458 kts 99°
2026-05-06 18:22 38.95731 11.47939 20969 ft 458 kts 99°
2026-05-06 18:22 38.95381 11.51966 20968 ft 458 kts 99°
2026-05-06 18:23 38.95022 11.56075 20968 ft 458 kts 99°
2026-05-06 18:23 38.94665 11.60146 20967 ft 458 kts 99°
2026-05-06 18:23 38.94311 11.64175 20966 ft 458 kts 99°
2026-05-06 18:23 38.93954 11.68267 20965 ft 458 kts 100°
2026-05-06 18:24 38.93602 11.72312 20965 ft 458 kts 100°
2026-05-06 18:24 38.93247 11.76352 20964 ft 458 kts 100°
2026-05-06 18:24 38.92885 11.80423 20964 ft 458 kts 100°
2026-05-06 18:24 38.92520 11.84510 20963 ft 458 kts 100°
2026-05-06 18:25 38.92155 11.88571 20963 ft 458 kts 100°
2026-05-06 18:25 38.91791 11.92594 20962 ft 459 kts 100°
2026-05-06 18:25 38.91418 11.96703 20961 ft 458 kts 100°
2026-05-06 18:25 38.91047 12.00777 20961 ft 458 kts 100°
2026-05-06 18:26 38.90679 12.04796 20960 ft 458 kts 100°
2026-05-06 18:26 38.90304 12.08879 20960 ft 458 kts 100°
2026-05-06 18:26 38.89928 12.12944 20959 ft 458 kts 100°
2026-05-06 18:26 38.89539 12.17012 20959 ft 458 kts 100°
2026-05-06 18:27 38.89145 12.21098 20958 ft 458 kts 100°
2026-05-06 18:27 38.88760 12.25122 20957 ft 459 kts 100°
2026-05-06 18:27 38.88377 12.29175 20956 ft 459 kts 100°
2026-05-06 18:27 38.87995 12.33236 20956 ft 459 kts 100°
2026-05-06 18:28 38.87609 12.37334 20955 ft 459 kts 100°
2026-05-06 18:28 38.87226 12.41385 20955 ft 459 kts 99°
2026-05-06 18:28 38.86937 12.45464 20955 ft 460 kts 96°
2026-05-06 18:28 38.86819 12.49552 20956 ft 460 kts 94°
2026-05-06 18:29 38.86761 12.53658 20955 ft 459 kts 93°
2026-05-06 18:29 38.86715 12.57706 20955 ft 459 kts 93°
2026-05-06 18:29 38.86667 12.61832 20955 ft 459 kts 93°
2026-05-06 18:29 38.86615 12.65922 20954 ft 459 kts 94°
2026-05-06 18:30 38.86560 12.70022 20954 ft 459 kts 94°
2026-05-06 18:30 38.86502 12.74102 20954 ft 459 kts 94°
2026-05-06 18:30 38.86441 12.78167 20955 ft 459 kts 94°
2026-05-06 18:30 38.86379 12.82219 20955 ft 459 kts 94°
2026-05-06 18:31 38.86314 12.86327 20955 ft 459 kts 94°
2026-05-06 18:31 38.86248 12.90405 20955 ft 459 kts 94°
2026-05-06 18:31 38.86180 12.94504 20955 ft 458 kts 94°
2026-05-06 18:31 38.86112 12.98583 20955 ft 458 kts 94°
2026-05-06 18:32 38.86042 13.02687 20955 ft 458 kts 94°
2026-05-06 18:32 38.85970 13.06741 20955 ft 458 kts 94°
2026-05-06 18:32 38.85896 13.10823 20955 ft 459 kts 94°
2026-05-06 18:32 38.85821 13.14939 20955 ft 459 kts 94°
2026-05-06 18:33 38.85747 13.18986 20955 ft 459 kts 94°
2026-05-06 18:33 38.85671 13.23100 20955 ft 459 kts 94°
2026-05-06 18:33 38.85594 13.27188 20954 ft 458 kts 94°
2026-05-06 18:33 38.85517 13.31228 20954 ft 458 kts 94°
2026-05-06 18:34 38.85437 13.35313 20954 ft 458 kts 94°
2026-05-06 18:34 38.85355 13.39398 20955 ft 458 kts 94°
2026-05-06 18:34 38.85272 13.43485 20955 ft 458 kts 94°
2026-05-06 18:34 38.85188 13.47528 20955 ft 458 kts 94°
2026-05-06 18:35 38.85101 13.51646 20955 ft 458 kts 94°
2026-05-06 18:35 38.85013 13.55705 20955 ft 458 kts 94°
2026-05-06 18:35 38.84925 13.59794 20955 ft 457 kts 94°
2026-05-06 18:35 38.84838 13.63816 20955 ft 457 kts 94°
2026-05-06 18:36 38.84750 13.67876 20954 ft 457 kts 95°
2026-05-06 18:36 38.84672 13.71420 20954 ft 457 kts 95°
2026-05-06 18:36 38.84581 13.75532 20954 ft 457 kts 95°
2026-05-06 18:36 38.84489 13.79596 20955 ft 457 kts 95°
2026-05-06 18:37 38.84393 13.83689 20954 ft 457 kts 95°
2026-05-06 18:37 38.84330 13.86370 20954 ft 457 kts 95°
2026-05-06 18:37 38.84201 13.91803 20955 ft 457 kts 95°
2026-05-06 18:37 38.84101 13.95911 20955 ft 457 kts 95°
2026-05-06 18:38 38.84000 13.99990 20957 ft 457 kts 95°
2026-05-06 18:38 38.83897 14.04009 20961 ft 456 kts 94°
2026-05-06 18:38 38.83635 14.08105 20945 ft 452 kts 105°
2026-05-06 18:38 38.82511 14.11766 20966 ft 444 kts 126°
2026-05-06 18:39 38.80553 14.14723 20980 ft 433 kts 144°
2026-05-06 18:39 38.77996 14.16713 20993 ft 427 kts 163°
2026-05-06 18:39 38.75145 14.17685 21013 ft 434 kts 173°
2026-05-06 18:40 38.69104 14.19174 21006 ft 444 kts 173°
2026-05-06 18:40 38.66065 14.19931 21006 ft 445 kts 173°
2026-05-06 18:40 38.63038 14.20696 21006 ft 444 kts 173°
2026-05-06 18:40 38.60031 14.21464 21007 ft 444 kts 173°
2026-05-06 18:41 38.57008 14.22241 21008 ft 444 kts 173°
2026-05-06 18:41 38.53998 14.23016 21008 ft 445 kts 173°
2026-05-06 18:41 38.50956 14.23800 21007 ft 445 kts 173°
2026-05-06 18:41 38.47905 14.24585 21007 ft 444 kts 172°
2026-05-06 18:42 38.44885 14.25364 21007 ft 444 kts 172°
2026-05-06 18:42 38.41885 14.26137 21007 ft 444 kts 172°
2026-05-06 18:42 38.38849 14.26919 21007 ft 444 kts 172°
2026-05-06 18:42 38.35833 14.27694 21008 ft 443 kts 173°
2026-05-06 18:43 38.32816 14.28471 21008 ft 443 kts 173°
2026-05-06 18:43 38.29832 14.29239 20917 ft 438 kts 173°
2026-05-06 18:43 38.26850 14.30006 20310 ft 434 kts 173°
2026-05-06 18:43 38.23911 14.30762 19443 ft 434 kts 173°
2026-05-06 18:44 38.20992 14.31511 18753 ft 430 kts 173°
2026-05-06 18:44 38.18065 14.32262 18147 ft 423 kts 173°
2026-05-06 18:44 38.15243 14.32985 17580 ft 416 kts 173°
2026-05-06 18:44 38.12412 14.33705 17021 ft 410 kts 173°
2026-05-06 18:45 38.09644 14.34409 16475 ft 403 kts 173°
2026-05-06 18:45 38.06938 14.35097 15938 ft 397 kts 173°
2026-05-06 18:45 38.04262 14.35778 15404 ft 391 kts 173°
2026-05-06 18:45 38.02483 14.36230 15044 ft 387 kts 173°
2026-05-06 18:46 37.99022 14.37110 14344 ft 380 kts 172°
2026-05-06 18:46 37.96449 14.37763 13822 ft 372 kts 172°
2026-05-06 18:46 37.93995 14.38390 13325 ft 349 kts 172°
2026-05-06 18:46 37.91699 14.38977 12862 ft 328 kts 172°
2026-05-06 18:47 37.89527 14.39530 12419 ft 310 kts 172°
2026-05-06 18:47 37.87465 14.40052 12000 ft 293 kts 172°
2026-05-06 18:47 37.85547 14.40535 11625 ft 278 kts 172°
2026-05-06 18:47 37.83715 14.40997 11529 ft 264 kts 172°
2026-05-06 18:48 37.81924 14.41448 11408 ft 258 kts 172°
2026-05-06 18:48 37.80195 14.41885 11302 ft 253 kts 171°
2026-05-06 18:48 37.78463 14.42321 11203 ft 254 kts 171°
2026-05-06 18:48 37.76747 14.42754 11112 ft 254 kts 171°
2026-05-06 18:49 37.75022 14.43190 11030 ft 254 kts 171°
2026-05-06 18:49 37.73284 14.43629 10957 ft 254 kts 171°
2026-05-06 18:49 37.71540 14.44069 10889 ft 255 kts 171°
2026-05-06 18:49 37.69812 14.44506 10831 ft 254 kts 171°
2026-05-06 18:50 37.68099 14.44938 10779 ft 254 kts 171°
2026-05-06 18:50 37.66360 14.45377 10737 ft 250 kts 171°
2026-05-06 18:50 37.64706 14.45797 10692 ft 241 kts 171°
2026-05-06 18:50 37.63104 14.46408 10612 ft 243 kts 152°
2026-05-06 18:51 37.61877 14.47830 10444 ft 242 kts 126°
2026-05-06 18:51 37.61209 14.49808 10095 ft 247 kts 110°
2026-05-06 18:51 37.60714 14.51857 9810 ft 245 kts 110°
2026-05-06 18:51 37.60211 14.53909 9530 ft 243 kts 110°
2026-05-06 18:52 37.59701 14.55944 9243 ft 241 kts 110°
2026-05-06 18:52 37.59192 14.57950 8959 ft 240 kts 110°
2026-05-06 18:52 37.58686 14.59941 8678 ft 238 kts 110°
2026-05-06 18:52 37.58047 14.61828 8342 ft 236 kts 129°
2026-05-06 18:53 37.56776 14.63092 7944 ft 235 kts 159°
2026-05-06 18:53 37.55188 14.63375 7617 ft 233 kts 184°
2026-05-06 18:53 37.53594 14.63054 7359 ft 231 kts 189°
2026-05-06 18:53 37.52038 14.62688 7091 ft 223 kts 188°
2026-05-06 18:54 37.50543 14.62415 6804 ft 215 kts 186°
2026-05-06 18:54 37.49075 14.62231 6539 ft 207 kts 183°
2026-05-06 18:54 37.47684 14.62222 6276 ft 198 kts 170°
2026-05-06 18:54 37.46439 14.62829 6028 ft 189 kts 146°
2026-05-06 18:55 37.45526 14.63969 5795 ft 181 kts 129°
2026-05-06 18:55 37.44783 14.65186 5574 ft 172 kts 129°
2026-05-06 18:55 37.44165 14.66438 5349 ft 164 kts 108°
2026-05-06 18:55 37.43889 14.67791 5192 ft 160 kts 105°
2026-05-06 18:56 37.43708 14.69173 5030 ft 160 kts 97°
2026-05-06 18:56 37.43687 14.70567 5030 ft 162 kts 90°
2026-05-06 18:56 37.43796 14.71997 5016 ft 162 kts 86°
2026-05-06 18:56 37.43920 14.73407 4966 ft 163 kts 86°
2026-05-06 18:57 37.44043 14.74816 4774 ft 161 kts 86°
2026-05-06 18:57 37.44161 14.76210 4563 ft 160 kts 87°
2026-05-06 18:57 37.44277 14.77603 4352 ft 159 kts 87°
2026-05-06 18:57 37.44391 14.78980 4145 ft 158 kts 87°
2026-05-06 18:58 37.44504 14.80353 3937 ft 157 kts 87°
2026-05-06 18:58 37.44615 14.81716 3731 ft 157 kts 87°
2026-05-06 18:58 37.44726 14.83079 3524 ft 156 kts 86°
2026-05-06 18:58 37.44837 14.84438 3317 ft 155 kts 86°
2026-05-06 18:59 37.44946 14.85780 3110 ft 154 kts 86°
2026-05-06 18:59 37.45055 14.87112 2930 ft 149 kts 86°
2026-05-06 18:59 37.45158 14.88366 2710 ft 142 kts 86°
2026-05-06 18:59 37.45261 14.89618 2526 ft 143 kts 86°
2026-05-06 19:00 37.45363 14.90861 2336 ft 142 kts 86°
2026-05-06 19:00 37.45463 14.92084 2149 ft 141 kts 85°
2026-05-06 19:00 37.45564 14.93313 1961 ft 140 kts 85°
2026-05-06 19:00 37.45631 14.94121 1837 ft 140 kts 85°
2026-05-06 19:01 37.45767 14.95755 1586 ft 139 kts 85°
2026-05-06 19:01 37.45864 14.96934 1404 ft 138 kts 83°
2026-05-06 19:01 37.45967 14.98163 1215 ft 138 kts 83°
2026-05-06 19:01 37.46068 14.99364 1032 ft 137 kts 83°
2026-05-06 19:02 37.46167 15.00550 850 ft 137 kts 83°
2026-05-06 19:02 37.46268 15.01747 667 ft 136 kts 83°
2026-05-06 19:02 37.46366 15.02922 485 ft 136 kts 83°
2026-05-06 19:02 37.46465 15.04101 307 ft 136 kts 83°
2026-05-06 19:03 37.46565 15.05288 127 ft 135 kts 83°
2026-05-06 19:03 37.46659 15.06411 28 ft 110 kts 84°
2026-05-06 19:03 37.46708 15.06989 29 ft 24 kts 84°
2026-05-06 19:03 37.46720 15.07124 29 ft 22 kts 83°
2026-05-06 19:04 37.46813 15.07703 29 ft 21 kts 66°
2026-05-06 19:04 37.46914 15.07817 29 ft 19 kts 349°
2026-05-06 19:05 37.46936 15.07679 30 ft 17 kts 246°
2026-05-06 19:05 37.46917 15.07527 30 ft 18 kts 265°
2026-05-06 19:05 37.46905 15.07365 29 ft 18 kts 264°
2026-05-06 19:05 37.46891 15.07199 29 ft 19 kts 264°
2026-05-06 19:06 37.46875 15.07028 29 ft 19 kts 263°
2026-05-06 19:06 37.46862 15.06851 26 ft 21 kts 266°
2026-05-06 19:06 37.46849 15.06674 29 ft 15 kts 264°
2026-05-06 19:06 37.46845 15.06583 29 ft 0 kts 270°
2026-05-06 19:07 37.46845 15.06569 29 ft 5 kts 279°
2026-05-06 19:07 37.46889 15.06508 30 ft 11 kts 349°
2026-05-06 19:07 37.46929 15.06514 31 ft 1 kts 21°
2026-05-06 19:07 37.46942 15.06521 31 ft 2 kts 21°
2026-05-06 19:08 37.46946 15.06523 31 ft 0 kts 21°